Regional Weather Roundup
Issued by NWS

Home | Current Version | Previous Version | Text Only | Print | Product List | Glossary Off
Versions: 1 2 3 4 5 6 7 8 9 10 11 12 13 14 15 16 17 18 19 20 21 22 23 24 25 26 27 28 29 30 31 32 33 34 35 36 37 38 39 40 41 42 43 44 45 46 47 48 49 50

970
ASUS43 KFSD 230010
RWRSD

WEATHER ROUNDUP FOR SOUTH DAKOTA
NATIONAL WEATHER SERVICE SIOUX FALLS SD
600 PM CST SUN JAN 22 2017

NOTE: "FAIR" INDICATES FEW OR NO CLOUDS BELOW 12,000 FEET WITH NO
SIGNIFICANT WEATHER AND/OR OBSTRUCTIONS TO VISIBILITY.


SDZ001>005-009-010-012>017-230100-
NORTHWEST AND NORTH CENTRAL SOUTH DAKOTA

CITY           SKY/WX    TMP DP  RH WIND       PRES   REMARKS
BUFFALO          N/A     24  20  84 NW7       29.76S WCI  16
FAITH            N/A     21  20  96 NW9       29.84S WCI  11
MOBRIDGE       CLOUDY    31  25  78 NW15      29.84R WCI  20
$$

SDZ012>016-024>037-041>051-057-063-072>074-230100-
SOUTHWEST AND SOUTH CENTRAL SOUTH DAKOTA

CITY           SKY/WX    TMP DP  RH WIND       PRES   REMARKS
RAPID CTY ARPT CLEAR     35  24  64 CALM      29.83S
PIERRE         CLOUDY    29  25  85 NW8       29.88S WCI  21
CUSTER         CLEAR     29  14  53 W7        29.80F WCI  22
ELLSWORTH AFB  CLEAR     37  23  56 CALM      29.83R
PHILIP         CLEAR     24  22  91 E7        29.88R WCI  16
PINE RIDGE     CLEAR     36  26  67 W5        29.84F
SPEARFISH      FAIR      36  18  48 SW8       29.81S
WINNER         FAIR      28  23  81 N8        29.89R WCI  20
$$

SDZ004>011-016>023-039-040-230100-
NORTHEAST SOUTH DAKOTA

CITY           SKY/WX    TMP DP  RH WIND       PRES   REMARKS
ABERDEEN       CLOUDY    30  26  85 W13       29.83S WCI  20
WATERTOWN      CLOUDY    29  27  92 W13       29.79R WCI  19
BROOKINGS      CLOUDY    29  27  92 NW15      29.81R WCI  18
SISSETON         N/A     34  31  88 NW12      29.79R WCI  25
$$

SDZ017-020-022-023-036>040-048>070-230100-
SOUTHEAST SOUTH DAKOTA

CITY           SKY/WX    TMP DP  RH WIND       PRES   REMARKS
SIOUX FALLS    CLOUDY    30  29  96 NW10      29.84R FOG     WCI  21
HURON          CLOUDY    29  27  92 NW13      29.86R WCI  19
CHAMBERLAIN    CLOUDY    31  28  88 NW14      29.89R WCI  21
MITCHELL       CLOUDY    31  27  85 W13       29.88R WCI  21
YANKTON        CLEAR     28  25  86 NW7       29.87R WCI  21
$$

ABBREVIATIONS USED IN REMARKS
   TC - TEMPERATURE IN CELSIUS
  WCI - WIND CHILL INDEX
   HX - HEAT INDEX
  VSB - VISIBILITY





USA.gov is the U.S. government's official web portal to all federal, state and local government web resources and services.